KC4KQE Weather Reports


Display with metric or nautical units.
time (UTC)temp
F
wind
direction
speed
MPH
gust
MPH
rain 1hr
in
rain 24hr
in
rain mn
in
humidity
%
barometer
mb
20260903224415 98 230 3.0 10.0 0.00 0.00 0.00 27 1010.9
20260903223915 98 233 4.0 7.0 0.00 0.00 0.00 28 1011.0
20260903223415 98 257 3.0 8.0 0.00 0.00 0.00 28 1011.0
20260903222916 97 232 4.0 8.0 0.00 0.00 0.00 29 1011.1
20260903222415 97 227 5.0 8.0 0.00 0.00 0.00 30 1011.1
20260903221915 97 162 2.0 8.0 0.00 0.00 0.00 29 1011.1
20260903221414 96 159 0.0 7.0 0.00 0.00 0.00 29 1011.3
20260903220915 97 186 4.0 6.0 0.00 0.00 0.00 29 1011.3
20260903220415 97 164 2.0 7.0 0.00 0.00 0.00 30 1011.4
20260903215914 97 151 2.0 7.0 0.00 0.00 0.00 30 1011.5
20260903215415 97 253 2.0 8.0 0.00 0.00 0.00 30 1011.5
20260903214914 97 251 3.0 10.0 0.00 0.00 0.00 30 1011.6
20260903214416 97 247 4.0 8.0 0.00 0.00 0.00 29 1011.7
20260903213914 97 222 5.0 10.0 0.00 0.00 0.00 30 1011.7
20260903213420 96 235 2.0 13.0 0.00 0.00 0.00 30 1011.8
20260903212915 97 250 7.0 11.0 0.00 0.00 0.00 30 1011.9
20260903212415 97 213 1.0 11.0 0.00 0.00 0.00 30 1012.0
20260903211915 97 204 7.0 11.0 0.00 0.00 0.00 32 1012.1
20260903211415 97 291 3.0 10.0 0.00 0.00 0.00 31 1012.1
20260903210915 97 231 6.0 11.0 0.00 0.00 0.00 31 1012.2
20260903210414 96 237 9.0 10.0 0.00 0.00 0.00 35 1012.2
20260903205914 95 203 4.0 7.0 0.00 0.00 0.00 35 1012.3
20260903205414 96 170 3.0 9.0 0.00 0.00 0.00 35 1012.4
20260903204914 96 196 3.0 10.0 0.00 0.00 0.00 34 1012.4
20260903204415 96 195 7.0 13.0 0.00 0.00 0.00 34 1012.5
20260903203915 96 240 3.0 13.0 0.00 0.00 0.00 33 1012.6
20260903203416 96 149 7.0 10.0 0.00 0.00 0.00 34 1012.6
20260903202914 96 186 2.0 7.0 0.00 0.00 0.00 34 1012.7
20260903202415 96 234 4.0 9.0 0.00 0.00 0.00 34 1012.7
20260903201915 96 148 2.0 13.0 0.00 0.00 0.00 35 1012.7
20260903201414 95 175 4.0 13.0 0.00 0.00 0.00 35 1012.8
20260903200914 96 114 3.0 10.0 0.00 0.00 0.00 36 1012.8
20260903200414 95 199 3.0 8.0 0.00 0.00 0.00 36 1012.9
20260903195914 95 184 7.0 8.0 0.00 0.00 0.00 36 1012.9
20260903195415 94 186 3.0 4.0 0.00 0.00 0.00 37 1013.0
20260903194915 94 96 2.0 6.0 0.00 0.00 0.00 37 1013.2
20260903194414 94 185 3.0 11.0 0.00 0.00 0.00 37 1013.2
20260903193914 95 203 7.0 11.0 0.00 0.00 0.00 37 1013.2
20260903193414 94 196 5.0 10.0 0.00 0.00 0.00 38 1013.3
20260903192914 94 190 2.0 10.0 0.00 0.00 0.00 38 1013.4
20260903192414 94 121 2.0 8.0 0.00 0.00 0.00 37 1013.5
20260903191915 94 168 8.0 9.0 0.00 0.00 0.00 39 1013.5
20260903191414 94 194 4.0 5.0 0.00 0.00 0.00 39 1013.6
20260903190915 94 164 1.0 8.0 0.00 0.00 0.00 38 1013.7
20260903190414 94 200 9.0 12.0 0.00 0.00 0.00 38 1013.8
20260903185915 93 171 4.0 8.0 0.00 0.00 0.00 39 1013.9
20260903185416 93 194 2.0 7.0 0.00 0.00 0.00 39 1013.9
20260903184915 92 157 5.0 11.0 0.00 0.00 0.00 41 1014.0
20260903184415 93 171 7.0 9.0 0.00 0.00 0.00 42 1014.1
20260903183914 92 182 2.0 8.0 0.00 0.00 0.00 41 1014.3
20260903183414 92 195 7.0 8.0 0.00 0.00 0.00 41 1014.3
20260903182915 92 103 2.0 8.0 0.00 0.00 0.00 43 1014.3
20260903182414 92 121 1.0 8.0 0.00 0.00 0.00 41 1014.5
20260903181916 93 113 1.0 9.0 0.00 0.00 0.00 41 1014.5
20260903181415 91 115 8.0 9.0 0.00 0.00 0.00 44 1014.6
20260903180915 91 121 3.0 4.0 0.00 0.00 0.00 43 1014.6
20260903180415 92 135 2.0 8.0 0.00 0.00 0.00 43 1014.7
20260903175914 91 179 3.0 8.0 0.00 0.00 0.00 44 1014.7
20260903175414 91 155 4.0 9.0 0.00 0.00 0.00 44 1014.8
20260903174914 90 123 1.0 9.0 0.00 0.00 0.00 46 1014.9
20260903174414 91 121 5.0 10.0 0.00 0.00 0.00 45 1014.9
20260903173914 90 119 5.0 9.0 0.00 0.00 0.00 46 1015.0
20260903173414 90 172 1.0 5.0 0.00 0.00 0.00 47 1015.0
20260903172915 90 111 4.0 6.0 0.00 0.00 0.00 47 1015.0
20260903172414 90 166 0.0 9.0 0.00 0.00 0.00 47 1015.0
20260903171914 89 100 3.0 6.0 0.00 0.00 0.00 48 1015.0
20260903171414 89 189 5.0 9.0 0.00 0.00 0.00 47 1015.0
20260903170915 89 173 3.0 8.0 0.00 0.00 0.00 48 1015.1
20260903170416 89 111 5.0 8.0 0.00 0.00 0.00 49 1015.1
20260903165914 89 134 1.0 8.0 0.00 0.00 0.00 48 1015.1
20260903165414 89 116 5.0 9.0 0.00 0.00 0.00 49 1015.1
20260903164915 88 198 3.0 7.0 0.00 0.00 0.00 52 1015.0
20260903164414 88 198 3.0 7.0 0.00 0.00 0.00 52 1015.0
20260903163915 88 140 1.0 7.0 0.00 0.00 0.00 52 1015.0
20260903163414 88 175 1.0 8.0 0.00 0.00 0.00 52 1015.0
20260903162916 87 148 3.0 6.0 0.00 0.00 0.00 53 1015.0
20260903162414 87 107 7.0 7.0 0.00 0.00 0.00 53 1015.1
20260903161914 87 155 3.0 8.0 0.00 0.00 0.00 53 1015.1
20260903161414 87 155 4.0 8.0 0.00 0.00 0.00 53 1015.1
20260903160914 87 134 4.0 10.0 0.00 0.00 0.00 55 1015.1
20260903160414 86 119 3.0 11.0 0.00 0.00 0.00 56 1015.1
20260903155914 86 162 5.0 7.0 0.00 0.00 0.00 55 1015.2
20260903155414 86 126 5.0 9.0 0.00 0.00 0.00 56 1015.2
20260903154915 86 140 3.0 8.0 0.00 0.00 0.00 56 1015.2
20260903154415 86 159 1.0 8.0 0.00 0.00 0.00 56 1015.2
20260903153915 86 144 1.0 9.0 0.00 0.00 0.00 56 1015.2
20260903153415 86 140 0.0 7.0 0.00 0.00 0.00 56 1015.2
20260903152914 86 173 2.0 7.0 0.00 0.00 0.00 56 1015.2
20260903152414 85 123 4.0 5.0 0.00 0.00 0.00 57 1015.2
20260903151914 85 128 3.0 8.0 0.00 0.00 0.00 58 1015.2
20260903151414 85 192 2.0 5.0 0.00 0.00 0.00 58 1015.2
20260903150914 85 128 2.0 6.0 0.00 0.00 0.00 57 1015.2
20260903150414 85 172 5.0 6.0 0.00 0.00 0.00 59 1015.1
20260903145915 84 119 1.0 7.0 0.00 0.00 0.00 59 1015.2
20260903145415 84 211 4.0 6.0 0.00 0.00 0.00 59 1015.2
20260903144915 84 149 1.0 6.0 0.00 0.00 0.00 60 1015.2
20260903144414 84 132 2.0 6.0 0.00 0.00 0.00 59 1015.1
20260903143914 84 150 4.0 8.0 0.00 0.00 0.00 60 1015.1
20260903143414 84 107 5.0 10.0 0.00 0.00 0.00 60 1015.1
20260903142915 83 169 2.0 7.0 0.00 0.00 0.00 61 1015.1
20260903142414 83 134 1.0 8.0 0.00 0.00 0.00 61 1015.1
20260903141914 83 137 3.0 5.0 0.00 0.00 0.00 62 1015.2
20260903141415 83 141 3.0 9.0 0.00 0.00 0.00 63 1015.1
20260903140915 82 113 2.0 5.0 0.00 0.00 0.00 63 1014.9
20260903140414 82 134 1.0 7.0 0.00 0.00 0.00 64 1014.8
20260903135914 82 144 4.0 7.0 0.00 0.00 0.00 64 1014.8
20260903135414 82 121 8.0 8.0 0.00 0.00 0.00 65 1014.8
20260903134915 81 136 2.0 6.0 0.00 0.00 0.00 65 1014.7
20260903134414 81 143 1.0 4.0 0.00 0.00 0.00 65 1014.6
20260903133914 81 148 1.0 4.0 0.00 0.00 0.00 65 1014.6
20260903133415 81 164 2.0 5.0 0.00 0.00 0.00 65 1014.5
20260903132914 81 125 1.0 3.0 0.00 0.00 0.00 66 1014.5
20260903132414 80 139 1.0 2.0 0.00 0.00 0.00 66 1014.4
20260903131914 80 153 1.0 4.0 0.00 0.00 0.00 66 1014.3
20260903131415 80 128 1.0 3.0 0.00 0.00 0.00 67 1014.2
20260903130914 80 111 0.0 3.0 0.00 0.00 0.00 67 1014.1
20260903130414 80 132 1.0 2.0 0.00 0.00 0.00 67 1014.1
20260903125914 80 131 1.0 2.0 0.00 0.00 0.00 66 1014.1
20260903125414 80 131 2.0 2.0 0.00 0.00 0.00 65 1014.1
20260903124916 80 145 1.0 4.0 0.00 0.00 0.00 65 1014.0
20260903124419 80 136 2.0 3.0 0.00 0.00 0.00 66 1014.0
20260903123914 80 113 2.0 3.0 0.00 0.00 0.00 66 1014.1
20260903123415 80 148 0.0 2.0 0.00 0.00 0.00 64 1014.0
20260903122914 81 173 1.0 3.0 0.00 0.00 0.00 63 1013.9
20260903122414 81 186 1.0 4.0 0.00 0.00 0.00 63 1013.9
20260903121915 81 212 3.0 5.0 0.00 0.00 0.00 63 1013.8
20260903121414 81 203 1.0 3.0 0.00 0.00 0.00 64 1013.7
20260903120914 81 200 0.0 3.0 0.00 0.00 0.00 63 1013.7
20260903120415 81 137 2.0 3.0 0.00 0.00 0.00 62 1013.7
20260903115915 81 137 1.0 3.0 0.00 0.00 0.00 62 1013.7
20260903115415 81 125 1.0 3.0 0.00 0.00 0.00 62 1013.7
20260903114914 81 138 2.0 3.0 0.00 0.00 0.00 62 1013.6
20260903114416 82 123 2.0 3.0 0.00 0.00 0.00 61 1013.5
20260903113914 82 145 1.0 4.0 0.00 0.00 0.00 61 1013.5
20260903113416 82 126 1.0 7.0 0.00 0.00 0.00 61 1013.4
20260903112914 82 140 1.0 5.0 0.00 0.00 0.00 61 1013.4
20260903112415 82 150 3.0 5.0 0.00 0.00 0.00 61 1013.4
20260903111914 82 159 3.0 5.0 0.00 0.00 0.00 61 1013.4
20260903111414 82 158 1.0 7.0 0.00 0.00 0.00 60 1013.4
20260903110914 82 128 2.0 7.0 0.00 0.00 0.00 60 1013.4
20260903110416 82 150 0.0 4.0 0.00 0.00 0.00 60 1013.4
20260903105914 82 182 3.0 6.0 0.00 0.00 0.00 59 1013.3
20260903105414 82 202 3.0 5.0 0.00 0.00 0.00 59 1013.3
20260903104914 82 163 3.0 4.0 0.00 0.00 0.00 59 1013.3
20260903104415 83 142 1.0 5.0 0.00 0.00 0.00 58 1013.3
20260903103914 83 150 2.0 4.0 0.00 0.00 0.00 58 1013.4
20260903103414 83 126 2.0 5.0 0.00 0.00 0.00 58 1013.5
20260903102914 83 105 2.0 3.0 0.00 0.00 0.00 58 1013.5
20260903102415 83 131 4.0 7.0 0.00 0.00 0.00 57 1013.5
20260903101916 83 110 2.0 6.0 0.00 0.00 0.00 57 1013.5
20260903101415 83 90 3.0 7.0 0.00 0.00 0.00 57 1013.5
20260903100914 83 94 2.0 7.0 0.00 0.00 0.00 56 1013.5
20260903100416 83 130 3.0 6.0 0.00 0.00 0.00 56 1013.5
20260903095915 83 109 2.0 4.0 0.00 0.00 0.00 56 1013.5
20260903095414 83 148 2.0 6.0 0.00 0.00 0.00 56 1013.5
20260903094915 84 165 3.0 5.0 0.00 0.00 0.00 55 1013.5
20260903094414 84 150 2.0 4.0 0.00 0.00 0.00 55 1013.5
20260903093915 84 151 3.0 5.0 0.00 0.00 0.00 54 1013.6
20260903093416 84 127 2.0 5.0 0.00 0.00 0.00 54 1013.6
20260903092916 84 144 2.0 4.0 0.00 0.00 0.00 54 1013.6
20260903092414 84 156 2.0 5.0 0.00 0.00 0.00 54 1013.6
20260903091914 84 151 2.0 4.0 0.00 0.00 0.00 54 1013.5
20260903091414 84 134 3.0 4.0 0.00 0.00 0.00 53 1013.5
20260903090915 85 134 1.0 3.0 0.00 0.00 0.00 53 1013.5
20260903090414 85 128 1.0 5.0 0.00 0.00 0.00 52 1013.5
20260903085915 85 146 3.0 5.0 0.00 0.00 0.00 52 1013.5
20260903085414 85 130 2.0 5.0 0.00 0.00 0.00 51 1013.5
20260903084915 86 137 2.0 6.0 0.00 0.00 0.00 51 1013.6
20260903084414 86 119 2.0 9.0 0.00 0.00 0.00 50 1013.5
20260903083914 86 124 4.0 10.0 0.00 0.00 0.00 51 1013.6
20260903083414 86 108 5.0 9.0 0.00 0.00 0.00 51 1013.6
20260903082914 86 112 2.0 10.0 0.00 0.00 0.00 51 1013.6
20260903082415 86 113 4.0 11.0 0.00 0.00 0.00 51 1013.7
20260903081914 86 97 9.0 11.0 0.00 0.00 0.00 50 1013.8
20260903081414 86 120 1.0 10.0 0.00 0.00 0.00 50 1013.8
20260903080915 86 126 4.0 10.0 0.00 0.00 0.00 50 1013.7
20260903080415 86 149 1.0 4.0 0.00 0.00 0.00 49 1013.7
20260903075914 85 124 0.0 4.0 0.00 0.00 0.00 50 1013.7
20260903075414 85 150 2.0 3.0 0.00 0.00 0.00 49 1013.7
20260903074914 85 121 2.0 3.0 0.00 0.00 0.00 50 1013.6
20260903074415 84 135 2.0 2.0 0.00 0.00 0.00 52 1013.6
20260903073915 84 154 0.0 2.0 0.00 0.00 0.00 52 1013.6
20260903073414 83 115 1.0 2.0 0.00 0.00 0.00 54 1013.6
20260903072914 84 103 0.0 0.0 0.00 0.00 0.00 53 1013.5
20260903072414 84 103 0.0 0.0 0.00 0.00 0.00 53 1013.4
20260903071914 84 103 0.0 0.0 0.00 0.00 0.00 51 1013.4
20260903071415 84 103 0.0 0.0 0.00 0.00 0.00 52 1013.5
20260903070915 85 103 0.0 0.0 0.00 0.00 0.00 50 1013.4
20260903070414 85 103 0.0 0.0 0.00 0.00 0.00 50 1013.4
20260903065914 85 103 0.0 1.0 0.00 0.00 0.00 48 1013.4
20260903065414 85 103 1.0 2.0 0.00 0.00 0.00 49 1013.4
20260903064914 86 103 1.0 1.0 0.00 0.00 0.00 47 1013.3
20260903064415 86 103 0.0 2.0 0.00 0.00 0.00 46 1013.3
20260903063914 86 103 1.0 2.0 0.00 0.00 0.00 45 1013.3
20260903063414 86 103 0.0 1.0 0.00 0.00 0.00 45 1013.3
20260903062914 86 102 0.0 2.0 0.00 0.00 0.00 46 1013.3
20260903062415 86 101 2.0 3.0 0.00 0.00 0.00 46 1013.3
20260903061915 87 101 1.0 2.0 0.00 0.00 0.00 46 1013.3
20260903061414 87 103 0.0 3.0 0.00 0.00 0.00 45 1013.3
20260903060914 87 103 2.0 3.0 0.00 0.00 0.00 45 1013.3
20260903060414 87 142 1.0 5.0 0.00 0.00 0.00 44 1013.3
20260903055914 87 170 3.0 3.0 0.00 0.00 0.00 43 1013.3
20260903055414 87 355 0.0 1.0 0.00 0.00 0.00 45 1013.2
20260903054914 87 355 1.0 2.0 0.00 0.00 0.00 45 1013.2
20260903054414 87 355 1.0 2.0 0.00 0.00 0.00 43 1013.2
20260903053914 87 355 0.0 1.0 0.00 0.00 0.00 43 1013.2
20260903053414 87 355 1.0 2.0 0.00 0.00 0.00 44 1013.2
20260903052914 87 348 1.0 2.0 0.00 0.00 0.00 43 1013.2
20260903052414 87 345 2.0 2.0 0.00 0.00 0.00 42 1013.2
20260903051914 88 346 0.0 2.0 0.00 0.00 0.00 44 1013.2
20260903051414 88 336 0.0 4.0 0.00 0.00 0.00 42 1013.2
20260903050914 88 5 1.0 2.0 0.00 0.00 0.00 42 1013.2
20260903050414 88 44 0.0 0.0 0.00 0.00 0.00 42 1013.2
20260903045914 88 44 0.0 1.0 0.00 0.00 0.00 43 1013.2
20260903045414 88 44 0.0 0.0 0.00 0.00 0.00 41 1013.2
20260903044914 88 44 0.0 2.0 0.00 0.00 0.00 43 1013.2
20260903044415 88 42 0.0 0.0 0.00 0.00 0.00 39 1013.2
20260903043914 89 42 0.0 2.0 0.00 0.00 0.00 40 1013.2
20260903043414 89 44 1.0 3.0 0.00 0.00 0.00 39 1013.2
20260903042914 89 40 2.0 2.0 0.00 0.00 0.00 40 1013.1
20260903042414 89 40 2.0 2.0 0.00 0.00 0.00 39 1013.1
20260903041914 89 350 1.0 2.0 0.00 0.00 0.00 40 1013.2
20260903041414 89 0 1.0 2.0 0.00 0.00 0.00 40 1013.2
20260903040916 89 0 0.0 0.0 0.00 0.00 0.00 40 1013.2
20260903040414 89 0 0.0 1.0 0.00 0.00 0.00 40 1013.1
20260903035914 89 355 1.0 2.0 0.00 0.00 0.00 39 1013.0
20260903035415 90 346 1.0 3.0 0.00 0.00 0.00 38 1013.0
20260903034914 90 332 2.0 3.0 0.00 0.00 0.00 37 1012.9
20260903034414 91 325 2.0 3.0 0.00 0.00 0.00 36 1012.9
20260903033916 91 324 2.0 4.0 0.00 0.00 0.00 35 1012.8
20260903033414 91 348 2.0 3.0 0.00 0.00 0.00 36 1012.7
20260903032914 91 327 2.0 6.0 0.00 0.00 0.00 36 1012.7
20260903032415 91 315 2.0 4.0 0.00 0.00 0.00 35 1012.6
20260903031914 91 317 1.0 3.0 0.00 0.00 0.00 36 1012.6
20260903031414 91 303 1.0 3.0 0.00 0.00 0.00 36 1012.6
20260903030915 92 306 2.0 3.0 0.00 0.00 0.00 35 1012.6
20260903030415 92 321 1.0 3.0 0.00 0.00 0.00 35 1012.5
20260903025914 92 305 2.0 4.0 0.00 0.00 0.00 35 1012.4
20260903025415 92 294 1.0 3.0 0.00 0.00 0.00 35 1012.3
20260903024915 92 281 1.0 3.0 0.00 0.00 0.00 35 1012.3
20260903024414 92 304 0.0 3.0 0.00 0.00 0.00 36 1012.3
20260903023914 92 316 2.0 3.0 0.00 0.00 0.00 34 1012.2
20260903023414 93 284 2.0 3.0 0.00 0.00 0.00 33 1012.2
20260903022914 93 276 1.0 5.0 0.00 0.00 0.00 33 1012.2
20260903022414 93 246 3.0 4.0 0.00 0.00 0.00 33 1012.2
20260903021914 93 234 4.0 5.0 0.00 0.00 0.00 33 1012.1
20260903021415 93 257 0.0 2.0 0.00 0.00 0.00 33 1012.0
20260903020916 94 254 1.0 2.0 0.00 0.00 0.00 31 1011.9
20260903020415 94 242 2.0 4.0 0.00 0.00 0.00 31 1011.9
20260903015914 94 243 0.0 2.0 0.00 0.00 0.00 31 1011.9
20260903015415 95 237 1.0 3.0 0.00 0.00 0.00 30 1011.9
20260903014914 95 225 1.0 4.0 0.00 0.00 0.00 30 1011.8
20260903014414 95 241 3.0 4.0 0.00 0.00 0.00 29 1011.8
20260903013914 95 262 2.0 5.0 0.00 0.00 0.00 29 1011.7
20260903013415 96 261 4.0 7.0 0.00 0.00 0.00 29 1011.6
20260903012915 96 252 3.0 7.0 0.00 0.00 0.00 29 1011.6
20260903012414 96 225 3.0 5.0 0.00 0.00 0.00 28 1011.6
20260903011914 96 255 5.0 7.0 0.00 0.00 0.00 28 1011.7
20260903011414 96 269 4.0 6.0 0.00 0.00 0.00 28 1011.7
20260903010916 96 238 3.0 4.0 0.00 0.00 0.00 29 1011.7
20260903010415 96 121 0.0 4.0 0.00 0.00 0.00 29 1011.7
20260903005914 96 213 1.0 3.0 0.00 0.00 0.00 27 1011.7
20260903005414 96 197 2.0 5.0 0.00 0.00 0.00 28 1011.7
20260903004915 97 244 2.0 6.0 0.00 0.00 0.00 27 1011.7
20260903004414 97 0 4.0 11.0 0.00 0.00 0.00 27 1011.8
20260903003914 97 269 10.0 11.0 0.00 0.00 0.00 27 1011.8
20260903003414 98 283 4.0 8.0 0.00 0.00 0.00 27 1011.7
20260903002914 98 273 4.0 6.0 0.00 0.00 0.00 27 1011.8
20260903002414 98 255 5.0 16.0 0.00 0.00 0.00 26 1011.8
20260903001914 98 184 3.0 5.0 0.00 0.00 0.00 27 1011.8
20260903001414 98 230 5.0 7.0 0.00 0.00 0.00 27 1011.8
20260903000915 98 230 6.0 9.0 0.00 0.00 0.00 26 1011.8
20260903000414 98 239 5.0 10.0 0.00 0.00 0.00 26 1011.9
20260902235916 98 233 0.0 7.0 0.00 0.00 0.00 27 1011.9
20260902235414 98 279 6.0 10.0 0.00 0.00 0.00 27 1012.0
20260902234914 98 240 5.0 9.0 0.00 0.00 0.00 27 1012.1
20260902234414 98 245 4.0 14.0 0.00 0.00 0.00 26 1012.1
20260902233914 99 296 6.0 9.0 0.00 0.00 0.00 27 1012.2
20260902233414 98 259 4.0 10.0 0.00 0.00 0.00 26 1012.3
20260902232914 99 286 5.0 9.0 0.00 0.00 0.00 27 1012.3
20260902232416 99 279 6.0 11.0 0.00 0.00 0.00 27 1012.3
20260902231914 99 273 3.0 5.0 0.00 0.00 0.00 27 1012.3
20260902231414 99 281 4.0 9.0 0.00 0.00 0.00 27 1012.4
20260902230916 99 258 6.0 13.0 0.00 0.00 0.00 26 1012.6
20260902230416 99 263 11.0 13.0 0.00 0.00 0.00 27 1012.5
20260902225914 99 258 8.0 11.0 0.00 0.00 0.00 27 1012.6
20260902225414 99 273 4.0 11.0 0.00 0.00 0.00 28 1012.6
20260902224914 98 277 7.0 11.0 0.00 0.00 0.00 29 1012.7